This demonstration page uses our WeatherBlox Daily Observations layout. Learn more.

Left ArrowRight Arrow

Hourly Observations for March 27, 2016

Temp ( °F °C ) Dew Point ( °F °C ) Humidity (%) Winds ( mph kmh ) Pressure ( in mb ) Visibility ( mi km ) Precip ( " mm )
12:42 am 00:42 Mostly Cloudy 32 0 27 -3 80 80 WNW 7 11 30.21 1023 10 16 0.00 0.00
12:51 am 00:51 Partly Cloudy 32 0 27 -3 80 80 WNW 7 11 30.21 1023 10 16 0.00 0.00
12:54 am 00:54 Mostly Clear 32 0 27 -2.8 82 82 NW 7 11 30.19 1022 10 16 0.00 0.00
1:19 am 01:19 Mostly Cloudy 32 0 27 -2.8 82 82 WNW 6 9 30.24 1024 10 16 0.00 0.00
1:37 am 01:37 Partly Cloudy 33 0.6 27 -2.8 78 78 NW 8 13 30.21 1023 10 16 0.00 0.00
1:54 am 01:54 Clear 33 0.6 27 -2.8 78 78 NW 8 13 30.19 1022 10 16 0.00 0.00
2:54 am 02:54 Clear 32 0 26 -3.3 79 79 NW 10 17 30.15 1021 10 16 0.00 0.00
3:54 am 03:54 Clear 32 0 24 -4.4 73 73 NNW 12 19 30.13 1020 10 16 0.00 0.00
4:54 am 04:54 Clear 31 -0.6 23 -5 72 72 NW 8 13 30.16 1021 10 16 0.00 0.00
5:54 am 05:54 Clear 31 -0.6 22 -5.6 69 69 NW 5 7 30.15 1021 10 16 0.00 0.00
6:54 am 06:54 Clear 30 -1.1 21 -6.1 69 69 NW 9 15 30.17 1022 10 16 0.00 0.00
7:54 am 07:54 Sunny 30 -1.1 20 -6.7 66 66 NW 9 15 30.18 1022 10 16 0.00 0.00
8:54 am 08:54 Sunny 30 -1.1 19 -7.2 64 64 NW 9 15 30.18 1022 10 16 0.00 0.00
9:54 am 09:54 Sunny 36 2.2 21 -6.1 55 55 NNW 9 15 30.18 1022 10 16 0.00 0.00
10:54 am 10:54 Sunny 41 5 22 -5.6 47 47 NW 9 15 30.18 1022 10 16 0.00 0.00
11:54 am 11:54 Sunny 44 6.7 20 -6.7 38 38 NNW 8 13 30.17 1022 10 16 0.00 0.00
12:54 pm 12:54 Sunny 46 7.8 18 -7.8 32 32 NNW 10 17 30.16 1021 10 16 0.00 0.00
1:54 pm 13:54 Sunny 48 8.9 17 -8.3 29 29 VRB 6 9 30.14 1021 10 16 0.00 0.00
2:54 pm 14:54 Sunny 50 10 17 -8.3 27 27 W 10 17 30.12 1020 10 16 0.00 0.00
3:54 pm 15:54 Sunny 52 11.1 16 -8.9 24 24 NW 12 19 30.10 1019 10 16 0.00 0.00
4:54 pm 16:54 Sunny 53 11.7 16 -8.9 23 23 NNW 8 13 30.10 1019 10 16 0.00 0.00
5:54 pm 17:54 Sunny 53 11.7 17 -8.3 24 24 NW 7 11 30.09 1019 10 16 0.00 0.00
6:54 pm 18:54 Sunny 50 10 17 -8.3 27 27 N 6 9 30.09 1019 10 16 0.00 0.00
7:54 pm 19:54 Clear 42 5.6 20 -6.7 41 41 NE 5 7 30.10 1019 10 16 0.00 0.00
8:54 pm 20:54 Clear 41 5 20 -6.7 43 43 E 6 9 30.09 1019 10 16 0.00 0.00
9:54 pm 21:54 Clear 38 3.3 22 -5.6 52 52 E 3 6 30.10 1019 10 16 0.00 0.00
10:54 pm 22:54 Clear 39 3.9 22 -5.6 50 50 S 3 6 30.10 1019 10 16 0.00 0.00
11:54 pm 23:54 Clear 36 2.2 22 -5.6 57 57 ESE 3 6 30.10 1019 10 16 0.00 0.00

Powered by AerisWeather